Akron, CO

3:32 AM MDT on July 25, 2017 (GMT -0600)
Akron-Washington County

Weather History for KAKO - June, 2013

Change the Weather History Date:

Monday, June 3, 2013

  Actual Average Record
Temperature  
Mean Temperature 71 °F 63 °F  
Max Temperature 94 °F 76 °F 95 °F (1958)
Min Temperature 47 °F 49 °F 28 °F (1954)
Degree Days  
Heating Degree Days 0    
Month to date heating degree days 10  
Cooling Degree Days 6    
Month to date cooling degree days 6  
Growing Degree Days 18 (Base 50)    
Moisture  
Dew Point 35 °F    
Average Humidity 42    
Maximum Humidity 76    
Minimum Humidity 7    
Precipitation  
Precipitation T in 0.10 in 1.00 in (1989)
Month to date precipitation T 0.30  
Year to date precipitation 3.89 6.48  
Sea Level Pressure  
Sea Level Pressure 29.62 in    
Wind  
Wind Speed 13 mph (West)    
Max Wind Speed 33 mph    
Max Gust Speed 47 mph    
Visibility 10 miles    
Events      
T = Trace of Precipitation, MM = Missing Value Source: NWS Daily Summary

Daily Weather History Graph

Daily Weather History Graph

Search for Another Location

Airport or City:

Trip Planner

Search our weather history database for the weather conditions in past years. The results will help you decide how hot, cold, wet, or windy it might be!

Date:

Astronomy

Jun. 03, 2013 Rise Set
Actual Time 5:24 AM MDT 8:17 PM MDT
Civil Twilight 4:52 AM MDT 8:50 PM MDT
Nautical Twilight 4:11 AM MDT 9:31 PM MDT
Astronomical Twilight 3:24 AM MDT 10:18 PM MDT
Moon 2:23 AM MDT (6/3) 3:50 PM MDT (6/3)
Length of Visible Light 15h 58m
Length of Day
14h 53m
Waning Crescent, 21% of the Moon is Illuminated
Jun 3
Waning Crescent
Jun 8
New
Jun 16
First Quarter
Jun 23
Full
Jun 29
Last Quarter

Hourly Weather History & Observations

Time (MDT) Temp. Dew Point Humidity Pressure Visibility Wind Dir Wind Speed Gust Speed Precip Events Conditions
12:53 AM 57.9 °F 42.1 °F 56% 29.70 in 10.0 mi SSE 18.4 mph - N/A   Clear
1:53 AM 55.9 °F 42.1 °F 60% 29.68 in 10.0 mi SSE 15.0 mph - N/A   Clear
2:53 AM 53.1 °F 41.0 °F 64% 29.67 in 10.0 mi SSE 13.8 mph - N/A   Clear
3:53 AM 52.0 °F 41.0 °F 66% 29.65 in 10.0 mi South 13.8 mph - N/A   Clear
4:53 AM 53.1 °F 42.1 °F 66% 29.64 in 10.0 mi South 13.8 mph - N/A   Clear
5:53 AM 46.9 °F 39.9 °F 77% 29.65 in 10.0 mi South 5.8 mph - N/A   Clear
6:53 AM 55.0 °F 43.0 °F 64% 29.63 in 10.0 mi Calm Calm - N/A   Clear
7:53 AM 68.0 °F 39.9 °F 36% 29.60 in 10.0 mi WSW 9.2 mph - N/A   Clear
8:53 AM 72.0 °F 37.9 °F 29% 29.60 in 10.0 mi WSW 8.1 mph - N/A   Clear
9:53 AM 80.1 °F 37.9 °F 22% 29.58 in 10.0 mi West 6.9 mph - N/A   Clear
10:53 AM 86.0 °F 36.0 °F 17% 29.57 in 4.0 mi West 12.7 mph - N/A   Haze
11:53 AM 91.0 °F 23.0 °F 8% 29.56 in 10.0 mi WSW 15.0 mph 19.6 mph N/A   Clear
12:53 PM 89.1 °F 19.9 °F 8% 29.55 in 10.0 mi WNW 15.0 mph 20.7 mph N/A   Clear
1:53 PM 91.9 °F 19.0 °F 7% 29.53 in 10.0 mi West 20.7 mph 26.5 mph N/A   Clear
2:53 PM 91.9 °F 19.9 °F 7% 29.55 in 10.0 mi West 6.9 mph 21.9 mph N/A   Clear
3:53 PM 89.1 °F 24.1 °F 9% 29.55 in 10.0 mi NNW 17.3 mph - N/A   Clear
4:53 PM 84.0 °F 35.1 °F 17% 29.58 in 10.0 mi NE 9.2 mph - N/A   Scattered Clouds
5:53 PM 84.9 °F 24.1 °F 11% 29.57 in 10.0 mi WSW 16.1 mph 31.1 mph N/A   Mostly Cloudy
6:53 PM 80.1 °F 37.9 °F 22% 29.60 in 9.0 mi North 21.9 mph 29.9 mph N/A   Partly Cloudy
7:53 PM 75.0 °F 30.9 °F 20% 29.61 in 10.0 mi NNE 11.5 mph - 0.00 in   Clear
8:53 PM 71.1 °F 39.0 °F 31% 29.64 in 10.0 mi NNE 19.6 mph 23.0 mph N/A   Clear
9:53 PM 68.0 °F 44.1 °F 42% 29.69 in 10.0 mi NNE 12.7 mph - N/A   Partly Cloudy
10:53 PM 61.0 °F 46.0 °F 58% 29.68 in 10.0 mi NNE 9.2 mph - N/A   Clear
11:53 PM 57.9 °F 46.0 °F 65% 29.69 in 10.0 mi NE 6.9 mph - N/A   Clear